Weather in Yantal'

Russia / Irkutsk Oblast     56°50′49″N   105°15′05″E
temp.,
°C
wind,
m/s
gust,
m/s
humid.,
%
clouds,
%
prec.,
mm/h
press.,
hPa
HPBL,
m
6 march, sat
sat623:00−14sse2391100 0.0 102268
02:00−15s359080 0.0 1022136
05:00−13s3990100 0.0 1021313
08:00−11sw41395100 0.6 1020553
11:00−6wsw61189100 0.3 10191046
14:00−5wsw61183100 0.5 10181201
17:00−5wsw5987100 0.6 10171119
20:00−7wsw4119197 0.7 1019514
7 march, sun
sun723:00−9sw389581 0.0 1018227
02:00−7ssw389690 0.2 1017266
05:00−6sw51291100 0.3 1015594
08:00−6ssw41487100 0.3 1013579
11:00−4wsw61577100 0.0 10121407
14:00−3wsw71489100 0.1 10111164
17:00−3wsw61387100 0.3 10101337
20:00−4wsw41289100 0.4 1012761
8 march, mon
mon823:00−5w6138993 0.6 10131233
02:00−8w5128394 0.8 1015880
05:00−11w51291100 0.1 1017887
08:00−13w61391100 0.1 1020845
11:00−12w61188100 0.2 10211056
14:00−9w61084100 0.4 10221152
17:00−9w5984100 0.1 10241080
20:00−14sw239691 0.2 102665
9 march, tue
tue923:00−16s239467 0.0 102645
02:00−16sse379381 0.0 1024135
05:00−14se3691100 0.0 1020178
08:00−12sse4985100 0.1 1017295
11:00−5sw61380100 0.0 1014700
14:00−2wsw71388100 0.1 10111286
17:00−2wsw7148199 0.6 10121721
20:00−6w71578100 0.8 10161287
10 march, wed
wed1023:00−10w6138871 0.0 10191040
02:00−12w6129286 0.1 1022912
05:00−13wsw51192100 0.1 1025717
08:00−14wsw41093100 0.2 1028515
11:00−12wsw4787100 0.0 1028644
14:00−8sw468196 0.1 1027797
17:00−7ssw378491 0.0 1024681
20:00−11sse339388 0.0 102373